Location: Moulin-Mage
(43.7109°N, 2.8048°E)
Time: 11:20:24
(UTC+00:00)

Daily predictions for brighter satellites

Satellite Brightness Start Highest point End
(mag) Time Altitude Azimuth Time Altitude Azimuth Time Altitude Azimuth
Cosmos 1844 4.0 17:16:07 10° SSW 17:21:50 77° WNW 17:27:39 10° NNE
SKYMED 2 4.2 17:23:12 10° NNE 17:27:11 35° E 17:31:10 10° SSE
YAOGAN 1 3.6 17:24:05 10° ESE 17:27:39 26° ENE 17:31:15 10° N
ATLAS 3B R/B 4.3 17:28:31 10° ESE 17:29:39 10° ESE 17:30:47 10° E
Cosmos 2228 3.1 17:25:55 10° S 17:30:16 90° W 17:34:38 10° N
CSL-04 Rocket 4.3 17:26:37 10° SE 17:31:36 36° ENE 17:36:33 10° N
Lacrosse 5 2.8 17:29:54 10° NW 17:34:28 32° NNE 17:39:00 10° E
Envisat 3.0 17:31:05 10° SSE 17:36:04 61° ENE 17:41:06 10° N
Cosmos 1726 Rocket 3.7 17:31:49 10° S 17:36:12 83° W 17:40:35 10° N
Cosmos 921 Rocket 3.4 17:33:42 10° SSW 17:38:11 72° WNW 17:42:39 10° NNE
CENTAUR R/B 4.1 17:36:39 10° ESE 17:38:43 12° ESE 17:40:48 10° E
Shenzhou-11 Module 1.9 17:36:36 10° W 17:39:22 66° S 17:41:55 11° ESE
Lacrosse 5 rocket 3.7 17:39:00 10° WNW 17:42:03 23° SW 17:45:13 10° S
Cosmos 1356 3.3 17:41:04 10° S 17:44:28 76° E 17:47:56 10° NNE
Unknown 2.9 17:42:08 10° NW 17:45:13 67° NNE 17:48:11 11° ESE
Meteor 2-10 3.9 17:40:29 10° S 17:45:31 70° E 17:50:32 10° NNE
Falcon 9 debris 4.3 17:44:17 10° NW 17:47:20 28° NNE 17:49:37 15° ENE
Cosmos 1328 3.7 17:46:18 10° N 17:50:18 78° E 17:54:14 10° SSE
Cosmos 1833 Rocket 3.0 17:45:46 10° NNW 17:51:11 46° ENE 17:56:34 10° SE
YAOGAN 6 2.6 17:50:52 10° SSE 17:54:27 58° ENE 17:58:02 10° N
Cosmos 1939 Rocket 3.9 17:51:52 10° ESE 17:55:08 25° ENE 17:58:27 10° NNE
USA 116 3.7 17:55:42 10° NNE 17:58:48 41° E 18:02:08 10° S
Cosmos 2058 Rocket 3.3 17:55:11 10° SSW 17:59:31 71° W 18:03:53 10° N
USA 238 DEB 3.8 17:53:40 10° SSW 18:00:04 51° ESE 18:06:40 10° NE
USA 238 3.9 17:53:47 10° S 18:00:11 51° ESE 18:06:46 10° NE
Unknown 4.2 18:03:19 10° NW 18:06:32 32° NNE 18:08:00 23° ENE
CZ-2D R/B 3.8 18:03:26 10° SE 18:06:57 35° ENE 18:10:30 10° N
Cosmos 1300 3.5 18:04:42 10° SSE 18:07:57 27° E 18:11:15 10° NNE
COBE Rocket 4.4 18:02:51 10° N 18:07:59 68° WNW 18:12:59 10° SSW
SJ 16-02 3.4 18:09:30 10° NNE 18:10:34 12° NE 18:10:34 12° NE
Cosmos 1461 2.8 18:10:37 10° NNW 18:14:41 64° NE 18:17:48 17° SE
Cosmos 1339 Rocket 4.4 18:08:54 10° S 18:14:58 82° E 18:21:09 10° N
COSMO-SKYMED 1 2.9 18:11:01 10° N 18:15:22 70° WNW 18:19:41 10° SSW
CSL-04 Debris 4.1 18:13:02 10° SSE 18:18:30 87° ENE 18:24:01 10° NNW
Ariane Rocket 3.3 18:13:59 10° SE 18:18:46 43° ENE 18:23:35 10° N
Cosmos 2082 Rocket 2.3 18:14:18 10° NNW 18:19:55 54° ENE 18:24:36 15° SE
Cosmos 1459 Rocket 4.4 18:16:09 10° N 18:21:55 38° ENE 18:27:42 10° SE
NOSS 3-2 (A) 3.4 18:18:18 10° SSW 18:23:52 59° ESE 18:29:49 12° NE
CZ-4 R/B 2.0 18:19:49 10° S 18:23:56 61° WSW 18:28:09 10° NNW
Cosmos 2084 Rocket 4.1 18:22:21 10° NNW 18:26:31 39° NE 18:27:37 33° E
Cosmos 1605 Rocket 4.2 18:24:34 10° NNW 18:30:44 73° W 18:36:48 10° S
Cosmos 44 3.8 18:27:09 10° S 18:31:43 37° ESE 18:32:31 34° E
Cosmos 1727 Rocket 3.9 18:34:38 10° S 18:40:48 89° ESE 18:47:01 10° N
In-Cosmos 22 Rocket 4.3 18:39:39 10° N 18:44:55 49° ENE 18:46:48 35° SE
Gbstr 26 Del rocket 4.1 18:41:20 10° WNW 18:47:35 85° SSW 18:51:30 30° SE
NOSS 3-2 (C) 3.4 18:43:23 10° SSW 18:48:58 58° ESE 18:51:57 30° NE
Cosmos 2173 Rocket 3.9 18:42:55 10° N 18:49:06 60° ENE 18:54:08 15° SSE
Cosmos 1076 Rocket 3.4 18:45:16 10° N 18:49:40 87° E 18:52:55 17° S
ATLAS 5 CENTAUR R/B 4.5 18:52:16 10° NW 18:53:34 11° NNW 18:54:56 10° N
Cosmos 1812 Rocket 3.9 18:49:29 10° SSW 18:53:52 65° W 18:58:19 10° N
Cosmos 1802 Rocket 4.1 18:48:23 10° N 18:54:44 56° ENE 18:57:43 31° SE
ADEOS Rocket 3.8 18:48:25 10° NNE 18:55:28 39° E 19:01:59 10° SSE
SPOT 3 Rocket 4.3 18:57:17 34° NE 18:57:17 34° NE 19:01:06 10° N
Cosmos 2278 Rocket 3.4 18:53:59 10° SW 18:59:21 42° WNW 19:04:45 10° NNE
Abrixas rocket 3.7 18:57:49 10° W 18:59:58 31° NW 18:59:58 31° NW
Cosmos 2297 3.6 18:56:12 10° SSW 19:01:50 70° ESE 19:04:47 29° NE
Unknown 3.9 18:59:33 10° WNW 19:02:09 49° WNW 19:02:09 49° WNW
YAOGAN 1 4.5 18:59:49 10° SSW 19:03:39 30° W 19:07:29 10° NW
Cosmos 1000 Rocket 4.3 19:01:42 10° S 19:07:52 78° E 19:14:08 10° N
SL-24 R/B 4.4 19:02:31 10° NNE 19:08:19 69° E 19:13:07 10° S
FALCON 9 DEB 4.3 19:05:10 10° NW 19:07:36 42° WNW 19:07:36 42° WNW
Cosmos 2058 2.9 19:04:43 10° N 19:08:57 79° W 19:08:59 79° WSW
Cosmos 1725 Rocket 4.2 19:04:31 10° N 19:10:07 48° ENE 19:10:07 48° ENE
H-2A R/B 2.9 19:14:06 37° NNE 19:14:06 37° NNE 19:17:45 10° N
Cosmos 2100 Rocket 4.0 19:08:44 10° N 19:14:56 82° W 19:21:04 10° S
Lacrosse 5 2.0 19:12:44 10° NW 19:17:45 65° SW 19:18:16 60° SSW
ATLAS 3B R/B 2.5 19:12:25 10° SSW 19:19:05 65° ESE 19:19:45 61° E
ARGOS 4.0 19:23:54 36° NNE 19:23:54 36° NNE 19:27:19 10° N
MOS 1 4.3 19:22:30 41° S 19:24:32 78° WSW 19:30:14 10° NNW
Cosmos 1898 Rocket 3.5 19:20:41 10° NNW 19:25:34 76° N 19:25:34 76° N
CENTAUR R/B 2.3 19:22:00 10° SSW 19:27:52 77° ESE 19:28:06 75° E
Cosmos 2016 Rocket 3.9 19:27:19 10° N 19:33:40 89° E 19:34:31 69° S
SL-08 R/B 4.4 19:35:03 10° N 19:40:27 71° N 19:40:27 71° N
SJ 16-02 3.5 19:46:06 10° NNW 19:47:34 21° NNW 19:47:34 21° NNW
Cosmos 2082 Rocket 4.2 19:59:11 10° NW 20:03:35 23° W 20:06:33 16° SW
ADEOS Rocket 4.3 20:33:46 10° N 20:40:58 46° WNW 20:47:41 10° SW
